Location: ??
(35.5052°N, 139.7262°E)
Time: 01:16:14
(UTC+00:00)

NOSS 3-2 (A) - Pass Details

Date: 20 June 2021
Orbit: 774 x 1433 km, 63.4° (Epoch: 17 July)

Event Time Altitude Azimuth Distance (km) Brightness Sun altitude
Rises 18:32:42 0° 327° (NNW) 4,082 6.8 -9.8°
Reaches altitude 10° 18:35:19 10° 327° (NNW) 3,199 6.3 -9.4°
Maximum altitude 18:43:14 82° 242° (WSW) 1,366 4.2 -8.1°
Drops below altitude 10° 18:52:00 10° 155° (SSE) 3,516 6.3 -6.7°
Sets 18:54:59 0° 154° (SSE) 4,504 6.9 -6.2°
